Location: Moscow
(55.7500°N, 37.5830°E)
Time: 05:09:56
(UTC+03:00)

Envisat - Pass Details

Date: 01 November 2021
Orbit: 764 x 766 km, 98.2° (Epoch: 28 November)

Event Time Altitude Azimuth Distance (km) Brightness Sun altitude
Rises 03:57:56 0° 27° (NNE) 3,246 6.9 -30.6°
Reaches altitude 10° 04:01:44 10° 56° (NE) 2,312 6.3 -30.1°
Maximum altitude 04:03:54 13° 82° (E) 2,129 6.1 -29.9°
Drops below altitude 10° 04:06:04 10° 107° (ESE) 2,305 6.1 -29.6°
Sets 04:09:50 0° 136° (SE) 3,224 6.6 -29.1°
